Torna al catalogo

CZ-6A DEB

AttivoSSO
NORAD 56664·DEBRIS·🇨🇳 China

Lanciato Nov 11, 2022 da Taiyuan Satellite Launch Center

Loading…

Prossimi Passaggi (prossime 24 ore)

TLE

AggiornatoSource: Space-Track

Epoca: Sep 13, 2026, 06:58 UTC

1 56664U 22151AGQ 26256.29059035  .00000287  00000-0  17408-3 0  9992
2 56664  98.8259 260.0336 0034433  70.4189 290.0696 14.13648029179924

Traccia CZ-6A DEB in tempo reale con AllMySat

Download on the App Store